Time,TemperatureF,DewpointF,PressureIn,WindDirection,WindDirectionDegrees,WindSpeedMPH,WindSpeedGustMPH,Humidity,HourlyPrecipIn,Conditions,Clouds,dailyrainin,SolarRadiationWatts/m^2,SoftwareType,DateUTC
2013-11-03 00:00:00,65.2,61.6,25.98,WSW,254,0.0,0.0,88,0.00,,,0.00,0,Wunderground v.1.15,2013-11-03 06:00:00,
2013-11-03 00:05:00,65.2,61.6,25.98,WSW,254,0.0,0.0,88,0.00,,,0.00,0,Wunderground v.1.15,2013-11-03 06:05:00,
2013-11-03 00:10:00,65.1,61.5,25.98,WSW,254,0.0,0.0,88,0.00,,,0.00,0,Wunderground v.1.15,2013-11-03 06:10:00,
2013-11-03 00:20:00,64.7,61.4,25.97,WSW,254,0.0,0.0,89,0.00,,,0.00,0,Wunderground v.1.15,2013-11-03 06:20:00,
2013-11-03 00:31:00,64.6,61.3,25.96,WSW,254,0.0,0.0,89,0.00,,,0.00,0,Wunderground v.1.15,2013-11-03 06:31:00,
2013-11-03 00:40:00,64.2,60.9,25.96,WSW,254,0.0,0.0,89,0.00,,,0.00,0,Wunderground v.1.15,2013-11-03 06:40:00,
2013-11-03 00:45:00,64.2,61.2,25.95,WSW,254,0.0,0.0,90,0.00,,,0.00,0,Wunderground v.1.15,2013-11-03 06:45:00,
2013-11-03 00:55:00,63.9,60.6,25.95,WSW,254,0.0,0.0,89,0.00,,,0.00,0,Wunderground v.1.15,2013-11-03 06:55:00,
2013-11-03 01:05:00,63.8,60.8,25.95,WSW,254,0.0,0.0,90,0.00,,,0.00,0,Wunderground v.1.15,2013-11-03 07:05:00,
2013-11-03 01:10:00,63.6,60.6,25.94,WSW,254,0.0,0.0,90,0.00,,,0.00,0,Wunderground v.1.15,2013-11-03 07:10:00,
2013-11-03 01:20:00,63.4,60.7,25.94,WSW,254,0.0,1.0,91,0.00,,,0.00,0,Wunderground v.1.15,2013-11-03 07:20:00,
2013-11-03 01:25:00,63.4,60.7,25.94,South,186,0.0,1.0,91,0.00,,,0.00,0,Wunderground v.1.15,2013-11-03 07:25:00,
2013-11-03 01:35:00,63.4,60.7,25.94,South,186,0.0,0.0,91,0.00,,,0.00,0,Wunderground v.1.15,2013-11-03 07:35:00,
2013-11-03 01:40:00,63.6,60.9,25.94,South,186,0.0,0.0,91,0.00,,,0.00,0,Wunderground v.1.15,2013-11-03 07:40:00,
2013-11-03 01:50:00,63.6,60.9,25.94,South,186,0.0,0.0,91,0.00,,,0.00,0,Wunderground v.1.15,2013-11-03 07:50:00,
2013-11-03 02:00:00,63.4,60.7,25.94,South,186,0.0,0.0,91,0.00,,,0.00,0,Wunderground v.1.15,2013-11-03 08:00:00,
2013-11-03 02:10:00,63.3,60.9,25.94,South,186,0.0,0.0,92,0.00,,,0.00,0,Wunderground v.1.15,2013-11-03 08:10:00,
2013-11-03 02:15:00,63.1,60.7,25.94,South,186,0.0,0.0,92,0.00,,,0.00,0,Wunderground v.1.15,2013-11-03 08:15:00,
2013-11-03 02:25:00,63.0,60.0,25.93,SSE,156,0.0,2.0,90,0.00,,,0.00,0,Wunderground v.1.15,2013-11-03 08:25:00,
2013-11-03 02:35:00,63.0,59.1,25.93,SSE,156,0.0,0.0,87,0.00,,,0.00,0,Wunderground v.1.15,2013-11-03 08:35:00,
2013-11-03 02:45:00,63.0,58.7,25.93,SSE,156,0.0,0.0,86,0.00,,,0.00,0,Wunderground v.1.15,2013-11-03 08:45:00,
2013-11-03 02:55:00,63.0,58.7,25.93,SSE,156,0.0,0.0,86,0.00,,,0.00,0,Wunderground v.1.15,2013-11-03 08:55:00,
2013-11-03 03:05:00,63.1,58.8,25.92,SE,140,1.0,1.0,86,0.00,,,0.00,0,Wunderground v.1.15,2013-11-03 09:05:00,
2013-11-03 03:10:00,63.1,58.8,25.92,SE,140,0.0,1.0,86,0.00,,,0.00,0,Wunderground v.1.15,2013-11-03 09:10:00,
2013-11-03 03:20:00,62.8,58.5,25.93,SE,140,0.0,0.0,86,0.00,,,0.00,0,Wunderground v.1.15,2013-11-03 09:20:00,
2013-11-03 03:30:00,62.8,58.5,25.93,SE,140,0.0,0.0,86,0.00,,,0.00,0,Wunderground v.1.15,2013-11-03 09:30:00,
2013-11-03 03:35:00,62.6,58.4,25.93,SE,140,0.0,0.0,86,0.00,,,0.00,0,Wunderground v.1.15,2013-11-03 09:35:00,
2013-11-03 03:45:00,62.5,58.3,25.93,NE,54,0.0,0.0,86,0.00,,,0.00,0,Wunderground v.1.15,2013-11-03 09:45:00,
2013-11-03 03:50:00,62.3,57.4,25.93,NE,54,0.0,0.0,84,0.00,,,0.00,0,Wunderground v.1.15,2013-11-03 09:50:00,
2013-11-03 04:00:00,62.3,58.1,25.93,East,87,0.0,0.0,86,0.00,,,0.00,0,Wunderground v.1.15,2013-11-03 10:00:00,
2013-11-03 04:10:00,62.5,58.3,25.94,East,87,0.0,0.0,86,0.00,,,0.00,0,Wunderground v.1.15,2013-11-03 10:10:00,
2013-11-03 04:20:00,62.5,58.6,25.94,East,87,0.0,0.0,87,0.00,,,0.00,0,Wunderground v.1.15,2013-11-03 10:20:00,
2013-11-03 04:30:00,62.5,58.6,25.94,East,87,0.0,0.0,87,0.00,,,0.00,0,Wunderground v.1.15,2013-11-03 10:30:00,
2013-11-03 04:40:00,62.5,58.6,25.94,East,87,0.0,0.0,87,0.00,,,0.00,0,Wunderground v.1.15,2013-11-03 10:40:00,
2013-11-03 04:50:00,62.3,58.4,25.94,East,87,0.0,0.0,87,0.00,,,0.00,0,Wunderground v.1.15,2013-11-03 10:50:00,
2013-11-03 04:55:00,62.2,58.3,25.95,East,87,0.0,0.0,87,0.00,,,0.00,0,Wunderground v.1.15,2013-11-03 10:55:00,
2013-11-03 05:05:00,62.2,58.6,25.94,East,87,0.0,0.0,88,0.00,,,0.00,0,Wunderground v.1.15,2013-11-03 11:05:00,
2013-11-03 05:10:00,62.2,58.6,25.95,East,87,0.0,0.0,88,0.00,,,0.00,0,Wunderground v.1.15,2013-11-03 11:10:00,
2013-11-03 05:15:00,62.0,58.4,25.95,East,87,0.0,0.0,88,0.00,,,0.00,0,Wunderground v.1.15,2013-11-03 11:15:00,
2013-11-03 05:20:00,62.0,58.4,25.95,East,87,0.0,0.0,88,0.00,,,0.00,0,Wunderground v.1.15,2013-11-03 11:20:00,
2013-11-03 05:31:00,61.9,58.3,25.95,East,87,0.0,0.0,88,0.00,,,0.00,5,Wunderground v.1.15,2013-11-03 11:31:00,
2013-11-03 05:40:00,61.9,58.3,25.95,East,87,0.0,0.0,88,0.00,,,0.00,18,Wunderground v.1.15,2013-11-03 11:40:00,
2013-11-03 05:45:00,61.9,58.3,25.95,East,87,0.0,0.0,88,0.00,,,0.00,28,Wunderground v.1.15,2013-11-03 11:45:00,
2013-11-03 05:55:00,61.9,58.6,25.95,East,87,0.0,0.0,89,0.00,,,0.00,40,Wunderground v.1.15,2013-11-03 11:55:00,
2013-11-03 06:05:00,62.2,58.6,25.96,East,87,0.0,0.0,88,0.00,,,0.00,40,Wunderground v.1.15,2013-11-03 12:05:00,
2013-11-03 06:10:00,62.3,58.7,25.96,East,87,0.0,0.0,88,0.00,,,0.00,51,Wunderground v.1.15,2013-11-03 12:10:00,
2013-11-03 06:20:00,62.6,58.7,25.96,East,87,0.0,0.0,87,0.00,,,0.00,72,Wunderground v.1.15,2013-11-03 12:20:00,
2013-11-03 06:25:00,63.0,58.7,25.97,East,87,0.0,0.0,86,0.00,,,0.00,86,Wunderground v.1.15,2013-11-03 12:25:00,
2013-11-03 06:35:00,63.6,59.3,25.97,East,88,0.0,0.0,86,0.00,,,0.00,105,Wunderground v.1.15,2013-11-03 12:35:00,
2013-11-03 06:40:00,64.1,59.2,25.97,East,88,0.0,0.0,84,0.00,,,0.00,134,Wunderground v.1.15,2013-11-03 12:40:00,
2013-11-03 06:50:00,65.1,59.1,25.97,ESE,111,0.0,0.0,81,0.00,,,0.00,179,Wunderground v.1.15,2013-11-03 12:50:00,
2013-11-03 06:55:00,65.9,59.2,25.97,ESE,110,0.0,0.0,79,0.00,,,0.00,311,Wunderground v.1.15,2013-11-03 12:55:00,
2013-11-03 07:05:00,67.3,58.7,25.98,ESE,111,0.0,0.0,74,0.00,,,0.00,397,Wunderground v.1.15,2013-11-03 13:05:00,
2013-11-03 07:15:00,68.5,58.7,25.98,ESE,111,0.0,1.0,71,0.00,,,0.00,304,Wunderground v.1.15,2013-11-03 13:15:00,
2013-11-03 07:20:00,69.0,58.8,25.98,ESE,111,0.0,0.0,70,0.00,,,0.00,246,Wunderground v.1.15,2013-11-03 13:20:00,
2013-11-03 07:30:00,69.3,58.3,25.98,ESE,111,1.0,1.0,68,0.00,,,0.00,309,Wunderground v.1.15,2013-11-03 13:30:00,
2013-11-03 07:35:00,69.8,58.8,25.98,ESE,111,1.0,2.0,68,0.00,,,0.00,343,Wunderground v.1.15,2013-11-03 13:35:00,
2013-11-03 07:45:00,70.8,58.0,25.98,ESE,111,0.0,1.0,64,0.00,,,0.00,462,Wunderground v.1.15,2013-11-03 13:45:00,
2013-11-03 07:55:00,72.2,58.5,25.99,SE,126,0.0,0.0,62,0.00,,,0.00,459,Wunderground v.1.15,2013-11-03 13:55:00,
2013-11-03 08:05:00,73.6,59.3,25.99,SE,126,0.0,0.0,61,0.00,,,0.00,471,Wunderground v.1.15,2013-11-03 14:05:00,
2013-11-03 08:15:00,74.3,59.0,25.98,SE,126,0.0,0.0,59,0.00,,,0.00,531,Wunderground v.1.15,2013-11-03 14:15:00,
2013-11-03 08:20:00,74.1,58.9,25.98,SE,126,1.0,1.0,59,0.00,,,0.00,559,Wunderground v.1.15,2013-11-03 14:20:00,
2013-11-03 08:31:00,74.8,59.0,25.99,South,175,1.0,1.0,58,0.00,,,0.00,596,Wunderground v.1.15,2013-11-03 14:31:00,
2013-11-03 08:40:00,75.5,59.2,25.99,South,188,0.0,1.0,57,0.00,,,0.00,415,Wunderground v.1.15,2013-11-03 14:40:00,
2013-11-03 08:50:00,75.2,60.8,25.99,WSW,250,1.0,2.0,61,0.00,,,0.00,234,Wunderground v.1.15,2013-11-03 14:50:00,
2013-11-03 08:55:00,74.6,60.7,25.99,West,279,1.0,2.0,62,0.00,,,0.00,225,Wunderground v.1.15,2013-11-03 14:55:00,
2013-11-03 09:10:00,74.3,61.3,25.99,SSW,206,2.0,2.0,64,0.00,,,0.00,606,Wunderground v.1.15,2013-11-03 15:10:00,
2013-11-03 09:15:00,74.5,61.5,25.99,SW,218,2.0,2.0,64,0.00,,,0.00,568,Wunderground v.1.15,2013-11-03 15:15:00,
2013-11-03 09:25:00,74.6,61.2,25.99,West,277,3.0,3.0,63,0.00,,,0.00,489,Wunderground v.1.15,2013-11-03 15:25:00,
2013-11-03 09:30:00,74.6,61.6,25.99,WNW,286,2.0,2.0,64,0.00,,,0.00,504,Wunderground v.1.15,2013-11-03 15:30:00,
2013-11-03 09:40:00,74.3,60.9,25.99,SW,217,3.0,5.0,63,0.00,,,0.00,621,Wunderground v.1.15,2013-11-03 15:40:00,
2013-11-03 09:50:00,74.8,61.4,25.99,WSW,238,3.0,4.0,63,0.00,,,0.00,494,Wunderground v.1.15,2013-11-03 15:50:00,
2013-11-03 09:55:00,74.6,61.2,25.99,WNW,298,3.0,4.0,63,0.00,,,0.00,765,Wunderground v.1.15,2013-11-03 15:55:00,
2013-11-03 10:05:00,74.8,60.9,25.99,SW,216,2.0,3.0,62,0.00,,,0.00,566,Wunderground v.1.15,2013-11-03 16:05:00,
2013-11-03 10:10:00,75.3,61.4,25.99,South,180,2.0,3.0,62,0.00,,,0.00,584,Wunderground v.1.15,2013-11-03 16:10:00,
2013-11-03 10:20:00,75.7,60.8,25.99,WSW,257,3.0,3.0,60,0.00,,,0.00,531,Wunderground v.1.15,2013-11-03 16:20:00,
2013-11-03 10:25:00,75.7,61.3,25.99,SW,227,2.0,4.0,61,0.00,,,0.00,617,Wunderground v.1.15,2013-11-03 16:25:00,
2013-11-03 10:30:00,76.0,60.6,25.99,NNE,17,2.0,3.0,59,0.00,,,0.00,645,Wunderground v.1.15,2013-11-03 16:30:00,
2013-11-03 10:35:00,75.9,61.0,25.98,WNW,302,2.0,3.0,60,0.00,,,0.00,617,Wunderground v.1.15,2013-11-03 16:35:00,
2013-11-03 10:45:00,75.9,61.0,25.98,NW,312,2.0,2.0,60,0.00,,,0.00,752,Wunderground v.1.15,2013-11-03 16:45:00,
2013-11-03 10:50:00,76.0,61.1,25.98,WNW,291,2.0,2.0,60,0.00,,,0.00,693,Wunderground v.1.15,2013-11-03 16:50:00,
2013-11-03 11:01:00,76.9,61.0,25.98,WSW,245,2.0,2.0,58,0.00,,,0.00,617,Wunderground v.1.15,2013-11-03 17:01:00,
2013-11-03 11:10:00,77.5,61.6,25.97,SW,231,1.0,2.0,58,0.00,,,0.00,788,Wunderground v.1.15,2013-11-03 17:10:00,
2013-11-03 11:20:00,77.8,61.8,25.97,WNW,298,2.0,5.0,58,0.00,,,0.00,441,Wunderground v.1.15,2013-11-03 17:20:00,
2013-11-03 11:25:00,77.1,61.2,25.97,WSW,255,2.0,2.0,58,0.00,,,0.00,446,Wunderground v.1.15,2013-11-03 17:25:00,
2013-11-03 11:35:00,76.2,61.3,25.96,NNE,20,2.0,3.0,60,0.00,,,0.00,747,Wunderground v.1.15,2013-11-03 17:35:00,
2013-11-03 11:45:00,76.4,61.0,25.96,West,274,2.0,5.0,59,0.00,,,0.00,471,Wunderground v.1.15,2013-11-03 17:45:00,
2013-11-03 11:50:00,76.6,61.2,25.95,WSW,252,3.0,5.0,59,0.00,,,0.00,513,Wunderground v.1.15,2013-11-03 17:50:00,
2013-11-03 12:00:00,76.9,62.4,25.95,WSW,244,3.0,6.0,61,0.00,,,0.00,510,Wunderground v.1.15,2013-11-03 18:00:00,
2013-11-03 12:05:00,76.9,62.4,25.95,WNW,291,2.0,6.0,61,0.00,,,0.00,504,Wunderground v.1.15,2013-11-03 18:05:00,
2013-11-03 12:15:00,76.9,62.4,25.94,SW,226,3.0,3.0,61,0.00,,,0.00,570,Wunderground v.1.15,2013-11-03 18:15:00,
2013-11-03 12:20:00,76.9,62.0,25.94,WSW,258,3.0,9.0,60,0.00,,,0.00,684,Wunderground v.1.15,2013-11-03 18:20:00,
2013-11-03 12:30:00,77.3,62.3,25.94,WSW,238,2.0,3.0,60,0.00,,,0.00,668,Wunderground v.1.15,2013-11-03 18:30:00,
2013-11-03 12:35:00,77.5,62.0,25.93,SW,227,3.0,5.0,59,0.00,,,0.00,670,Wunderground v.1.15,2013-11-03 18:35:00,
2013-11-03 12:45:00,75.9,61.0,25.93,NNW,334,3.0,5.0,60,0.00,,,0.00,244,Wunderground v.1.15,2013-11-03 18:45:00,
2013-11-03 12:55:00,76.0,60.6,25.93,SSW,207,3.0,3.0,59,0.00,,,0.00,489,Wunderground v.1.15,2013-11-03 18:55:00,
2013-11-03 13:01:00,76.6,61.2,25.93,WSW,240,3.0,4.0,59,0.00,,,0.00,768,Wunderground v.1.15,2013-11-03 19:01:00,
2013-11-03 13:10:00,76.9,62.4,25.92,WSW,253,4.0,6.0,61,0.00,,,0.00,782,Wunderground v.1.15,2013-11-03 19:10:00,
2013-11-03 13:20:00,77.5,62.0,25.92,NW,312,3.0,10.0,59,0.00,,,0.00,462,Wunderground v.1.15,2013-11-03 19:20:00,
2013-11-03 13:25:00,77.1,62.1,25.92,WSW,254,3.0,10.0,60,0.00,,,0.00,686,Wunderground v.1.15,2013-11-03 19:25:00,
2013-11-03 13:35:00,77.1,61.7,25.91,West,263,3.0,3.0,59,0.00,,,0.00,388,Wunderground v.1.15,2013-11-03 19:35:00,
2013-11-03 13:45:00,76.9,62.0,25.91,WNW,296,3.0,3.0,60,0.00,,,0.00,253,Wunderground v.1.15,2013-11-03 19:45:00,
2013-11-03 13:50:00,76.7,61.3,25.91,NNE,18,2.0,3.0,59,0.00,,,0.00,640,Wunderground v.1.15,2013-11-03 19:50:00,
2013-11-03 14:05:00,75.5,62.5,25.90,WNW,288,3.0,3.0,64,0.00,,,0.00,329,Wunderground v.1.15,2013-11-03 20:05:00,
2013-11-03 14:10:00,75.3,62.7,25.90,SW,216,3.0,5.0,65,0.00,,,0.00,352,Wunderground v.1.15,2013-11-03 20:10:00,
2013-11-03 14:20:00,75.2,63.1,25.90,SSW,207,3.0,4.0,66,0.00,,,0.00,308,Wunderground v.1.15,2013-11-03 20:20:00,
2013-11-03 14:30:00,74.8,62.7,25.90,WNW,290,2.0,2.0,66,0.00,,,0.00,304,Wunderground v.1.15,2013-11-03 20:30:00,
2013-11-03 14:35:00,74.8,63.1,25.90,West,281,2.0,3.0,67,0.00,,,0.00,281,Wunderground v.1.15,2013-11-03 20:35:00,
2013-11-03 14:45:00,74.1,62.4,25.90,NNW,331,3.0,3.0,67,0.00,,,0.00,276,Wunderground v.1.15,2013-11-03 20:45:00,
2013-11-03 14:50:00,73.8,62.6,25.90,West,276,4.0,4.0,68,0.00,,,0.00,352,Wunderground v.1.15,2013-11-03 20:50:00,
2013-11-03 14:55:00,73.8,62.6,25.90,WSW,246,3.0,3.0,68,0.00,,,0.00,316,Wunderground v.1.15,2013-11-03 20:55:00,
2013-11-03 15:05:00,73.8,62.6,25.90,North,5,2.0,2.0,68,0.00,,,0.00,209,Wunderground v.1.15,2013-11-03 21:05:00,
2013-11-03 15:10:00,73.4,62.6,25.90,West,277,2.0,3.0,69,0.00,,,0.00,225,Wunderground v.1.15,2013-11-03 21:10:00,
2013-11-03 15:20:00,72.7,63.1,25.89,WSW,240,3.0,3.0,72,0.00,,,0.00,244,Wunderground v.1.15,2013-11-03 21:20:00,
2013-11-03 15:30:00,72.4,62.9,25.90,WSW,245,1.0,3.0,72,0.00,,,0.00,163,Wunderground v.1.15,2013-11-03 21:30:00,
2013-11-03 15:35:00,72.2,62.7,25.90,WSW,245,2.0,2.0,72,0.00,,,0.00,156,Wunderground v.1.15,2013-11-03 21:35:00,
2013-11-03 15:45:00,71.7,62.6,25.90,West,278,2.0,2.0,73,0.00,,,0.00,97,Wunderground v.1.15,2013-11-03 21:45:00,
2013-11-03 15:55:00,71.5,63.2,25.89,WSW,258,2.0,3.0,75,0.00,,,0.00,56,Wunderground v.1.15,2013-11-03 21:55:00,
2013-11-03 16:00:00,71.2,63.2,25.90,WSW,254,2.0,3.0,76,0.00,,,0.00,69,Wunderground v.1.15,2013-11-03 22:00:00,
2013-11-03 16:10:00,70.5,62.9,25.90,WNW,283,1.0,3.0,77,0.00,,,0.00,44,Wunderground v.1.15,2013-11-03 22:10:00,
2013-11-03 16:20:00,70.2,63.0,25.90,WNW,286,1.0,1.0,78,0.00,,,0.00,33,Wunderground v.1.15,2013-11-03 22:20:00,
2013-11-03 16:25:00,70.0,63.2,25.90,WSW,240,1.0,2.0,79,0.00,,,0.00,33,Wunderground v.1.15,2013-11-03 22:25:00,
2013-11-03 16:35:00,69.7,63.3,25.91,West,271,2.0,2.0,80,0.00,,,0.00,25,Wunderground v.1.15,2013-11-03 22:35:00,
2013-11-03 16:40:00,69.3,62.9,25.91,West,271,2.0,2.0,80,0.00,,,0.00,25,Wunderground v.1.15,2013-11-03 22:40:00,
2013-11-03 16:50:00,69.0,62.9,25.91,West,267,1.0,1.0,81,0.00,,,0.00,23,Wunderground v.1.15,2013-11-03 22:50:00,
2013-11-03 16:55:00,69.0,63.3,25.91,SSW,209,1.0,1.0,82,0.00,,,0.00,14,Wunderground v.1.15,2013-11-03 22:55:00,
2013-11-03 17:05:00,68.8,63.1,25.92,WNW,285,1.0,1.0,82,0.00,,,0.00,5,Wunderground v.1.15,2013-11-03 23:05:00,
2013-11-03 17:10:00,68.5,62.8,25.92,WSW,255,1.0,1.0,82,0.00,,,0.00,0,Wunderground v.1.15,2013-11-03 23:10:00,
2013-11-03 17:15:00,68.3,62.9,25.92,WSW,247,1.0,1.0,83,0.00,,,0.00,0,Wunderground v.1.15,2013-11-03 23:15:00,
2013-11-03 17:25:00,68.0,63.0,25.92,WSW,244,1.0,2.0,84,0.00,,,0.00,0,Wunderground v.1.15,2013-11-03 23:25:00,
2013-11-03 17:35:00,67.8,62.8,25.92,West,270,1.0,3.0,84,0.00,,,0.00,0,Wunderground v.1.15,2013-11-03 23:35:00,
2013-11-03 17:40:00,67.8,63.1,25.92,WSW,258,1.0,3.0,85,0.00,,,0.00,0,Wunderground v.1.15,2013-11-03 23:40:00,
2013-11-03 17:50:00,67.7,63.4,25.92,SW,230,1.0,1.0,86,0.00,,,0.00,0,Wunderground v.1.15,2013-11-03 23:50:00,
2013-11-03 17:55:00,67.5,63.2,25.93,SW,234,1.0,1.0,86,0.00,,,0.00,0,Wunderground v.1.15,2013-11-03 23:55:00,
2013-11-03 18:01:00,67.5,63.5,25.93,WSW,244,1.0,1.0,87,0.00,,,0.00,0,Wunderground v.1.15,2013-11-04 00:01:00,
2013-11-03 18:10:00,67.2,63.5,25.93,West,266,1.0,1.0,88,0.00,,,0.00,0,Wunderground v.1.15,2013-11-04 00:10:00,
2013-11-03 18:20:00,67.0,63.3,25.93,WNW,295,0.0,0.0,88,0.00,,,0.00,0,Wunderground v.1.15,2013-11-04 00:20:00,
2013-11-03 18:25:00,67.0,63.3,25.94,NW,316,0.0,0.0,88,0.00,,,0.00,0,Wunderground v.1.15,2013-11-04 00:25:00,
2013-11-03 18:35:00,66.8,63.1,25.94,NW,323,0.0,1.0,88,0.00,,,0.00,0,Wunderground v.1.15,2013-11-04 00:35:00,
2013-11-03 18:45:00,66.8,63.1,25.95,WNW,299,0.0,1.0,88,0.00,,,0.00,0,Wunderground v.1.15,2013-11-04 00:45:00,
2013-11-03 18:50:00,66.8,63.1,25.95,WNW,299,0.0,1.0,88,0.00,,,0.00,0,Wunderground v.1.15,2013-11-04 00:50:00,
2013-11-03 19:00:00,66.7,63.0,25.96,WNW,299,0.0,0.0,88,0.00,,,0.00,0,Wunderground v.1.15,2013-11-04 01:00:00,
2013-11-03 19:10:00,66.8,62.8,25.96,WNW,299,0.0,0.0,87,0.00,,,0.00,0,Wunderground v.1.15,2013-11-04 01:10:00,
2013-11-03 19:16:00,66.8,63.1,25.96,WSW,244,0.0,1.0,88,0.00,,,0.00,0,Wunderground v.1.15,2013-11-04 01:16:00,
2013-11-03 19:25:00,66.8,63.5,25.96,WSW,244,0.0,1.0,89,0.00,,,0.01,0,Wunderground v.1.15,2013-11-04 01:25:00,
2013-11-03 19:35:00,66.8,63.5,25.96,WSW,244,0.0,0.0,89,0.00,,,0.01,0,Wunderground v.1.15,2013-11-04 01:35:00,
2013-11-03 19:40:00,66.7,63.4,25.96,WSW,244,0.0,0.0,89,0.00,,,0.01,0,Wunderground v.1.15,2013-11-04 01:40:00,
2013-11-03 19:50:00,66.5,63.5,25.96,WSW,244,0.0,0.0,90,0.00,,,0.01,0,Wunderground v.1.15,2013-11-04 01:50:00,
2013-11-03 19:55:00,66.5,63.5,25.96,WSW,244,0.0,0.0,90,0.00,,,0.01,0,Wunderground v.1.15,2013-11-04 01:55:00,
2013-11-03 20:05:00,66.2,62.9,25.96,WSW,244,0.0,0.0,89,0.00,,,0.01,0,Wunderground v.1.15,2013-11-04 02:05:00,
2013-11-03 20:15:00,65.9,62.6,25.96,WSW,244,0.0,0.0,89,0.00,,,0.01,0,Wunderground v.1.15,2013-11-04 02:15:00,
2013-11-03 20:20:00,66.0,63.0,25.97,WSW,244,0.0,0.0,90,0.00,,,0.01,0,Wunderground v.1.15,2013-11-04 02:20:00,
2013-11-03 20:35:00,66.0,63.0,25.97,WSW,244,0.0,0.0,90,0.00,,,0.01,0,Wunderground v.1.15,2013-11-04 02:35:00,
2013-11-03 20:40:00,66.2,63.5,25.97,WSW,244,0.0,0.0,91,0.00,,,0.01,0,Wunderground v.1.15,2013-11-04 02:40:00,
2013-11-03 20:50:00,66.2,63.2,25.97,WSW,244,0.0,0.0,90,0.00,,,0.01,0,Wunderground v.1.15,2013-11-04 02:50:00,
2013-11-03 20:55:00,65.7,61.7,25.97,NE,36,0.0,0.0,87,0.00,,,0.01,0,Wunderground v.1.15,2013-11-04 02:55:00,
2013-11-03 21:05:00,65.5,60.2,25.97,ESE,105,1.0,2.0,83,0.00,,,0.01,0,Wunderground v.1.15,2013-11-04 03:05:00,
2013-11-03 21:10:00,65.5,60.2,25.97,ESE,105,1.0,1.0,83,0.00,,,0.01,0,Wunderground v.1.15,2013-11-04 03:10:00,
2013-11-03 21:20:00,65.5,60.2,25.98,WNW,298,1.0,2.0,83,0.00,,,0.01,0,Wunderground v.1.15,2013-11-04 03:20:00,
2013-11-03 21:25:00,65.5,59.9,25.98,NW,317,1.0,2.0,82,0.00,,,0.01,0,Wunderground v.1.15,2013-11-04 03:25:00,
2013-11-03 21:35:00,65.5,59.9,25.98,ENE,76,1.0,1.0,82,0.00,,,0.01,0,Wunderground v.1.15,2013-11-04 03:35:00,
2013-11-03 21:45:00,65.9,59.9,25.99,East,86,2.0,7.0,81,0.00,,,0.01,0,Wunderground v.1.15,2013-11-04 03:45:00,
2013-11-03 21:50:00,65.9,59.9,25.98,ENE,71,2.0,4.0,81,0.00,,,0.01,0,Wunderground v.1.15,2013-11-04 03:50:00,
2013-11-03 22:00:00,65.7,59.7,25.98,NE,38,2.0,3.0,81,0.00,,,0.01,0,Wunderground v.1.15,2013-11-04 04:00:00,
2013-11-03 22:10:00,65.7,59.7,25.98,East,80,3.0,3.0,81,0.00,,,0.01,0,Wunderground v.1.15,2013-11-04 04:10:00,
2013-11-03 22:15:00,65.7,59.7,25.98,East,101,1.0,1.0,81,0.00,,,0.01,0,Wunderground v.1.15,2013-11-04 04:15:00,
2013-11-03 22:20:00,65.9,60.2,25.98,ENE,57,1.0,1.0,82,0.00,,,0.01,0,Wunderground v.1.15,2013-11-04 04:20:00,
2013-11-03 22:31:00,66.3,61.0,25.98,SE,142,1.0,1.0,83,0.00,,,0.01,0,Wunderground v.1.15,2013-11-04 04:31:00,
2013-11-03 22:40:00,66.7,62.0,25.98,SE,130,3.0,7.0,85,0.00,,,0.01,0,Wunderground v.1.15,2013-11-04 04:40:00,
2013-11-03 22:45:00,66.7,62.4,25.98,SSE,153,4.0,4.0,86,0.00,,,0.01,0,Wunderground v.1.15,2013-11-04 04:45:00,
2013-11-03 22:55:00,66.7,62.0,25.97,SE,127,3.0,5.0,85,0.00,,,0.01,0,Wunderground v.1.15,2013-11-04 04:55:00,
2013-11-03 23:06:00,66.5,62.2,25.98,ESE,123,0.0,0.0,86,0.00,,,0.01,0,Wunderground v.1.15,2013-11-04 05:06:00,
2013-11-03 23:10:00,66.3,62.0,25.98,ESE,123,0.0,0.0,86,0.00,,,0.01,0,Wunderground v.1.15,2013-11-04 05:10:00,
2013-11-03 23:16:00,66.2,61.9,25.98,ESE,123,0.0,1.0,86,0.00,,,0.01,0,Wunderground v.1.15,2013-11-04 05:16:00,
2013-11-03 23:25:00,66.0,61.7,25.97,North,5,0.0,1.0,86,0.00,,,0.01,0,Wunderground v.1.15,2013-11-04 05:25:00,
2013-11-03 23:36:00,66.0,61.4,25.97,SSE,161,0.0,2.0,85,0.00,,,0.01,0,Wunderground v.1.15,2013-11-04 05:36:00,
2013-11-03 23:46:00,66.3,61.0,25.96,SSE,157,2.0,2.0,83,0.00,,,0.01,0,Wunderground v.1.15,2013-11-04 05:46:00,
2013-11-03 23:55:00,66.3,60.6,25.96,SSE,148,2.0,4.0,82,0.00,,,0.01,0,Wunderground v.1.15,2013-11-04 05:55:00,